TimeHST,TemperatureF,Dew PointF,Humidity,Sea Level PressureIn,VisibilityMPH,Wind Direction,Wind SpeedMPH,Gust SpeedMPH,PrecipitationIn,Events,Conditions,WindDirDegrees,DateUTC
12:06 AM,-9999,-9999,N/A,30.10,6.2,East,9.2,21.9,N/A,,Mostly Cloudy,90,2013-05-26 10:06:00
12:37 AM,73.4,68.0,83,30.10,6.2,East,13.8,19.6,N/A,,Mostly Cloudy,80,2013-05-26 10:37:00
12:57 AM,73.4,68.0,83,30.08,10.0,East,12.7,24.2,N/A,,Mostly Cloudy,80,2013-05-26 10:57:00
1:57 AM,73.4,66.9,80,30.06,10.0,East,10.4,19.6,N/A,,Scattered Clouds,80,2013-05-26 11:57:00
2:57 AM,-9999,-9999,N/A,30.06,10.0,East,9.2,16.1,N/A,,Partly Cloudy,80,2013-05-26 12:57:00
3:57 AM,73.4,64.9,75,30.05,10.0,East,10.4,17.3,N/A,,Mostly Cloudy,80,2013-05-26 13:57:00
4:57 AM,73.4,64.9,75,30.06,10.0,East,6.9,-,N/A,,Partly Cloudy,90,2013-05-26 14:57:00
5:57 AM,73.4,64.9,75,30.07,10.0,Variable,5.8,16.1,N/A,,Clear,0,2013-05-26 15:57:00
6:17 AM,73.4,64.4,73,30.09,6.2,ENE,10.4,-,N/A,,Mostly Cloudy,60,2013-05-26 16:17:00
6:45 AM,73.4,64.4,73,30.09,6.2,ENE,10.4,-,0.00,,Partly Cloudy,60,2013-05-26 16:45:00
6:57 AM,73.4,64.9,75,30.08,10.0,East,11.5,17.3,0.00,,Partly Cloudy,80,2013-05-26 16:57:00
7:57 AM,75.2,64.9,70,30.09,10.0,ENE,9.2,-,N/A,,Clear,60,2013-05-26 17:57:00
8:57 AM,79.7,66.0,63,30.10,10.0,ENE,10.4,-,N/A,,Scattered Clouds,70,2013-05-26 18:57:00
9:57 AM,79.3,66.9,66,30.09,10.0,ENE,10.4,18.4,N/A,,Scattered Clouds,70,2013-05-26 19:57:00
10:57 AM,79.3,66.0,64,30.09,10.0,ENE,10.4,21.9,N/A,,Scattered Clouds,70,2013-05-26 20:57:00
11:57 AM,79.3,68.0,68,30.08,10.0,NE,12.7,19.6,N/A,,Mostly Cloudy,50,2013-05-26 21:57:00
12:57 PM,82.4,66.9,59,30.07,10.0,ENE,13.8,-,N/A,,Clear,70,2013-05-26 22:57:00
1:57 PM,82.4,66.9,59,30.06,10.0,NE,13.8,18.4,N/A,,Scattered Clouds,50,2013-05-26 23:57:00
2:57 PM,83.5,68.0,59,30.05,10.0,ENE,10.4,19.6,N/A,,Partly Cloudy,70,2013-05-27 00:57:00
3:57 PM,82.9,69.1,63,30.04,10.0,ENE,9.2,17.3,N/A,,Scattered Clouds,60,2013-05-27 01:57:00
4:57 PM,81.7,68.0,63,30.04,10.0,ENE,12.7,18.4,N/A,,Scattered Clouds,60,2013-05-27 02:57:00
5:57 PM,80.2,68.0,66,30.04,10.0,ENE,9.2,-,N/A,,Scattered Clouds,60,2013-05-27 03:57:00
6:57 PM,78.1,70.0,76,30.06,10.0,ENE,9.2,-,N/A,,Mostly Cloudy,70,2013-05-27 04:57:00
7:04 PM,78.8,69.8,74,30.07,6.2,ENE,11.5,-,N/A,,Mostly Cloudy,70,2013-05-27 05:04:00
7:11 PM,78.8,69.8,74,30.07,6.2,East,11.5,18.4,N/A,,Mostly Cloudy,80,2013-05-27 05:11:00
7:57 PM,77.7,70.0,77,30.08,10.0,East,12.7,18.4,N/A,,Mostly Cloudy,80,2013-05-27 05:57:00
8:34 PM,77.0,66.2,69,30.11,6.2,East,9.2,17.3,N/A,,Mostly Cloudy,80,2013-05-27 06:34:00
8:45 PM,77.0,66.2,69,30.11,6.2,East,10.4,18.4,N/A,,Scattered Clouds,80,2013-05-27 06:45:00
8:57 PM,76.6,66.9,72,30.10,10.0,East,13.8,19.6,N/A,,Mostly Cloudy,80,2013-05-27 06:57:00
9:57 PM,76.6,69.1,77,30.12,10.0,East,11.5,20.7,N/A,,Mostly Cloudy,80,2013-05-27 07:57:00
10:38 PM,77.0,69.8,78,30.13,6.2,East,10.4,18.4,N/A,,Mostly Cloudy,80,2013-05-27 08:38:00
10:57 PM,76.6,69.1,77,30.12,10.0,East,10.4,17.3,N/A,,Mostly Cloudy,90,2013-05-27 08:57:00
11:41 PM,77.0,66.2,69,30.13,6.2,East,9.2,-,N/A,,Mostly Cloudy,90,2013-05-27 09:41:00
11:57 PM,76.3,66.9,73,30.11,10.0,East,8.1,16.1,N/A,,Partly Cloudy,100,2013-05-27 09:57:00